User: anonymous   Login
Location: Unspecified
(0.0000°N, 0.0000°E)
Time: 10:32:47
(UTC+00:00)
Language:

OPTUS D2 - Orbit

View from above orbital plane
View from above orbital plane
View from above satellite
View from above satellite

Ground track
Ground track

The orbit data is extracted from the following two-line orbital elements,

1 32252U 07044A   16341.40445981 -.00000176  00000-0  00000+0 0  9993
2 32252   0.0097 334.1953 0003517 279.6528 119.3945  1.00272401 33550
Epoch (UTC): 06 December 2016 09:42:25
Eccentricity: 0.0003517
inclination: 0.0097°
perigee height: 35771 km
apogee height: 35801 km
right ascension of ascending node: 334.1953°
argument of perigee: 279.6528°
revolutions per day: 1.00272401
mean anomaly at epoch: 119.3945°
orbit number at epoch: 3355

The dashed part of the orbit path shows where the satellite is in the earth's shadow,  

DLR